COSMOS 1275 DEB

Satellite information

Favourite Embed

Satellite Type and Status

DEBRISIN ORBIT

Key statistics

Satellite COSMOS 1275 DEB at a glance.

Uptime

16106

Days in orbit

Revolutions

≈ 13.7

Per day

Orbit

LEO

Low Earth Orbit

Inclination

82.8

Latest

Satellite identification and parameters

Extended collection of information and parameters for COSMOS 1275 DEB.

Object identification

Identified? True

Debris? True

Object name: COSMOS 1275 DEB

International designator: 1981-053R

Object number (NORAD): 12661

Object ID (CCSDS): 12661

Country: COMMONWEALTH OF INDEPENDENT STATES (CIS)

Current information (Y/N): Y

RCS size: SMALL

Orbital parameters

Period: 104.982 minutes

Inclination: 82.8004 deg

SMA: 7371.757 km

Apoapsis: 1084.526 km

Periapsis: 902.718 km

RAAN: 163.9665 deg

Eccentricy: 0.0123314

Argument of periapsis: 81.4941 deg

Mean anomaly: 37.1112 deg

Mean motion: 13.71659339 rev/day

Mean motion (dot): 0.00000622 rev/day2

B* drag term: 0.00063624 1/REarth

Two-line elements (TLE)

Creation date: July 8, 2025, 5:26 p.m.

Reference frame: TEME

Reference center: EARTH

Epoch: July 8, 2025, 11:07 a.m. UTC

TLE line 0: 0 COSMOS 1275 DEB

TLE line 1: 1 12661U 81053R 25189.46335847 .00000622 00000-0 63624-3 0 9992

TLE line 2: 2 12661 82.8004 163.9665 0123314 81.4941 37.1112 13.71659339182875

Live tracking on map

Real-time ground track for satellite COSMOS 1275 DEB.

In-orbit conjunctions

A list of the most updated potential collisions computed for object COSMOS 1275 DEB.

Target Orbit TCA Probability of collision Miss distance Type
COSMOS 1275 DEB LEO 2024-08-03 15:10:23 0.003555566 20.0 (m) DEBRIS

Associated space launch

Navigation satellite providing location information for the Tsiklon-B navigation system

COSMOS 1275 DEB was lifted into orbit during the mission ‘Kosmos-3M | Parus 27’, on board a Kosmos-3M space rocket.

The launch took place on June 4, 1981, 3:41 p.m. from 132/2.

For more information about the launch, click the button.

Launch to space Kosmos-3M | Parus 27
Kosmos-3M | Parus 27

Agency: N/A

Status: Launch Successful

Launch date: June 4, 1981, 3:41 p.m. UTC

Rocket: Kosmos-3M

Launch pad: 132/2

Location: Plesetsk Cosmodrome, Russian Federation

...

Latest news about this satellite

There are no fresh news available about this satellite. Check back as we update our databases every day.


Newsletter sign-up

Weekly statistics, charts and insights to help you stay on top of the space industry.